Time,TemperatureF,DewpointF,PressureIn,WindDirection,WindDirectionDegrees,WindSpeedMPH,WindSpeedGustMPH,Humidity,HourlyPrecipIn,Conditions,Clouds,dailyrainin,SoftwareType,DateUTC
2013-05-01 00:00:00,40.5,23.9,-100.00,North,-999,-999.0,-999.0,51,-99.99,,,-99.99,,2013-05-01 04:00:00,
2013-05-01 00:10:00,40.3,24.6,-100.00,North,-999,-999.0,-999.0,53,-99.99,,,-99.99,,2013-05-01 04:10:00,
2013-05-01 00:20:00,40.0,25.2,-100.00,North,-999,-999.0,-999.0,55,-99.99,,,-99.99,,2013-05-01 04:20:00,
2013-05-01 00:30:00,40.1,24.4,-100.00,North,-999,-999.0,-999.0,53,-99.99,,,-99.99,,2013-05-01 04:30:00,
2013-05-01 00:40:00,39.4,25.0,-100.00,North,-999,-999.0,-999.0,56,-99.99,,,-99.99,,2013-05-01 04:40:00,
2013-05-01 00:50:00,39.4,25.0,-100.00,North,-999,-999.0,-999.0,56,-99.99,,,-99.99,,2013-05-01 04:50:00,
2013-05-01 01:00:00,38.9,25.3,-100.00,North,-999,-999.0,-999.0,58,-99.99,,,-99.99,,2013-05-01 05:00:00,
2013-05-01 01:10:00,38.9,24.1,-100.00,North,-999,-999.0,-999.0,55,-99.99,,,-99.99,,2013-05-01 05:10:00,
2013-05-01 01:20:00,38.5,26.2,-100.00,North,-999,-999.0,-999.0,61,-99.99,,,-99.99,,2013-05-01 05:20:00,
2013-05-01 01:30:00,38.5,25.5,-100.00,North,-999,-999.0,-999.0,59,-99.99,,,-99.99,,2013-05-01 05:30:00,
2013-05-01 01:40:00,38.5,26.6,-100.00,North,-999,-999.0,-999.0,62,-99.99,,,-99.99,,2013-05-01 05:40:00,
2013-05-01 01:50:00,38.0,24.6,-100.00,North,-999,-999.0,-999.0,58,-99.99,,,-99.99,,2013-05-01 05:50:00,
2013-05-01 02:00:00,38.2,27.5,-100.00,North,-999,-999.0,-999.0,65,-99.99,,,-99.99,,2013-05-01 06:00:00,
2013-05-01 02:10:00,38.2,25.2,-100.00,North,-999,-999.0,-999.0,59,-99.99,,,-99.99,,2013-05-01 06:10:00,
2013-05-01 02:20:00,37.3,24.6,-100.00,North,-999,-999.0,-999.0,60,-99.99,,,-99.99,,2013-05-01 06:20:00,
2013-05-01 02:30:00,37.1,25.7,-100.00,North,-999,-999.0,-999.0,63,-99.99,,,-99.99,,2013-05-01 06:30:00,
2013-05-01 02:40:00,37.3,24.3,-100.00,North,-999,-999.0,-999.0,59,-99.99,,,-99.99,,2013-05-01 06:40:00,
2013-05-01 02:50:00,36.5,23.9,-100.00,North,-999,-999.0,-999.0,60,-99.99,,,-99.99,,2013-05-01 06:50:00,
2013-05-01 03:00:00,36.5,25.9,-100.00,North,-999,-999.0,-999.0,65,-99.99,,,-99.99,,2013-05-01 07:00:00,
2013-05-01 03:10:00,36.5,25.5,-100.00,North,-999,-999.0,-999.0,64,-99.99,,,-99.99,,2013-05-01 07:10:00,
2013-05-01 03:20:00,36.0,23.0,-100.00,North,-999,-999.0,-999.0,59,-99.99,,,-99.99,,2013-05-01 07:20:00,
2013-05-01 03:30:00,36.2,25.5,-100.00,North,-999,-999.0,-999.0,65,-99.99,,,-99.99,,2013-05-01 07:30:00,
2013-05-01 03:40:00,35.8,23.7,-100.00,North,-999,-999.0,-999.0,61,-99.99,,,-99.99,,2013-05-01 07:40:00,
2013-05-01 03:50:00,35.3,24.4,-100.00,North,-999,-999.0,-999.0,64,-99.99,,,-99.99,,2013-05-01 07:50:00,
2013-05-01 04:00:00,35.3,25.5,-100.00,North,-999,-999.0,-999.0,67,-99.99,,,-99.99,,2013-05-01 08:00:00,
2013-05-01 04:10:00,34.7,25.2,-100.00,North,-999,-999.0,-999.0,68,-99.99,,,-99.99,,2013-05-01 08:10:00,
2013-05-01 04:20:00,34.7,23.4,-100.00,North,-999,-999.0,-999.0,63,-99.99,,,-99.99,,2013-05-01 08:20:00,
2013-05-01 04:30:00,34.7,24.8,-100.00,North,-999,-999.0,-999.0,67,-99.99,,,-99.99,,2013-05-01 08:30:00,
2013-05-01 04:40:00,34.6,25.2,-100.00,North,-999,-999.0,-999.0,68,-99.99,,,-99.99,,2013-05-01 08:40:00,
2013-05-01 04:50:00,34.2,23.4,-100.00,North,-999,-999.0,-999.0,64,-99.99,,,-99.99,,2013-05-01 08:50:00,
2013-05-01 05:00:00,34.0,22.3,-100.00,North,-999,-999.0,-999.0,62,-99.99,,,-99.99,,2013-05-01 09:00:00,
2013-05-01 05:10:00,33.5,23.7,-100.00,North,-999,-999.0,-999.0,67,-99.99,,,-99.99,,2013-05-01 09:10:00,
2013-05-01 05:20:00,33.7,23.2,-100.00,North,-999,-999.0,-999.0,65,-99.99,,,-99.99,,2013-05-01 09:20:00,
2013-05-01 05:30:00,33.3,22.8,-100.00,North,-999,-999.0,-999.0,65,-99.99,,,-99.99,,2013-05-01 09:30:00,
2013-05-01 05:40:00,32.9,22.1,-100.00,North,-999,-999.0,-999.0,64,-99.99,,,-99.99,,2013-05-01 09:40:00,
2013-05-01 05:50:00,33.3,23.9,-100.00,North,-999,-999.0,-999.0,68,-99.99,,,-99.99,,2013-05-01 09:50:00,
2013-05-01 06:00:00,33.5,23.4,-100.00,North,-999,-999.0,-999.0,66,-99.99,,,-99.99,,2013-05-01 10:00:00,
2013-05-01 06:10:00,-1.0,0.0,-100.00,North,-999,-999.0,-999.0,0,-99.99,,,-99.99,,2013-05-01 10:10:00,
2013-05-01 06:20:00,34.2,25.2,-100.00,North,-999,-999.0,-999.0,69,-99.99,,,-99.99,,2013-05-01 10:20:00,
2013-05-01 06:30:00,34.7,23.7,-100.00,North,-999,-999.0,-999.0,64,-99.99,,,-99.99,,2013-05-01 10:30:00,
2013-05-01 06:40:00,35.6,25.7,-100.00,North,-999,-999.0,-999.0,67,-99.99,,,-99.99,,2013-05-01 10:40:00,
2013-05-01 06:50:00,38.2,27.9,-100.00,North,-999,-999.0,-999.0,66,-99.99,,,-99.99,,2013-05-01 10:50:00,
2013-05-01 07:00:00,40.1,29.3,-100.00,North,-999,-999.0,-999.0,65,-99.99,,,-99.99,,2013-05-01 11:00:00,
2013-05-01 07:10:00,41.6,31.5,-100.00,North,-999,-999.0,-999.0,67,-99.99,,,-99.99,,2013-05-01 11:10:00,
2013-05-01 07:20:00,43.4,32.9,-100.00,North,-999,-999.0,-999.0,66,-99.99,,,-99.99,,2013-05-01 11:20:00,
2013-05-01 07:30:00,45.5,32.9,-100.00,North,-999,-999.0,-999.0,61,-99.99,,,-99.99,,2013-05-01 11:30:00,
2013-05-01 07:40:00,48.6,34.9,-100.00,North,-999,-999.0,-999.0,59,-99.99,,,-99.99,,2013-05-01 11:40:00,
2013-05-01 07:50:00,50.8,36.5,-100.00,North,-999,-999.0,-999.0,58,-99.99,,,-99.99,,2013-05-01 11:50:00,
2013-05-01 08:00:00,53.1,35.4,-100.00,North,-999,-999.0,-999.0,51,-99.99,,,-99.99,,2013-05-01 12:00:00,
2013-05-01 08:10:00,55.4,32.7,-100.00,North,-999,-999.0,-999.0,42,-99.99,,,-99.99,,2013-05-01 12:10:00,
2013-05-01 08:20:00,57.2,32.5,-100.00,North,-999,-999.0,-999.0,39,-99.99,,,-99.99,,2013-05-01 12:20:00,
2013-05-01 08:30:00,57.6,32.2,-100.00,North,-999,-999.0,-999.0,38,-99.99,,,-99.99,,2013-05-01 12:30:00,
2013-05-01 08:40:00,59.2,30.9,-100.00,North,-999,-999.0,-999.0,34,-99.99,,,-99.99,,2013-05-01 12:40:00,
2013-05-01 08:50:00,59.8,29.8,-100.00,North,-999,-999.0,-999.0,32,-99.99,,,-99.99,,2013-05-01 12:50:00,
2013-05-01 09:00:00,60.7,31.5,-100.00,North,-999,-999.0,-999.0,33,-99.99,,,-99.99,,2013-05-01 13:00:00,
2013-05-01 09:10:00,61.4,31.3,-100.00,North,-999,-999.0,-999.0,32,-99.99,,,-99.99,,2013-05-01 13:10:00,
2013-05-01 09:20:00,62.3,31.3,-100.00,North,-999,-999.0,-999.0,31,-99.99,,,-99.99,,2013-05-01 13:20:00,
2013-05-01 09:30:00,62.3,32.0,-100.00,North,-999,-999.0,-999.0,32,-99.99,,,-99.99,,2013-05-01 13:30:00,
2013-05-01 09:40:00,63.9,33.4,-100.00,North,-999,-999.0,-999.0,32,-99.99,,,-99.99,,2013-05-01 13:40:00,
2013-05-01 09:50:00,64.4,34.0,-100.00,North,-999,-999.0,-999.0,32,-99.99,,,-99.99,,2013-05-01 13:50:00,
2013-05-01 10:00:00,63.7,33.3,-100.00,North,-999,-999.0,-999.0,32,-99.99,,,-99.99,,2013-05-01 14:00:00,
2013-05-01 10:10:00,64.8,33.4,-100.00,North,-999,-999.0,-999.0,31,-99.99,,,-99.99,,2013-05-01 14:10:00,
2013-05-01 10:20:00,65.7,37.2,-100.00,North,-999,-999.0,-999.0,35,-99.99,,,-99.99,,2013-05-01 14:20:00,
2013-05-01 10:30:00,66.4,37.9,-100.00,North,-999,-999.0,-999.0,35,-99.99,,,-99.99,,2013-05-01 14:30:00,
2013-05-01 10:40:00,64.8,35.1,-100.00,North,-999,-999.0,-999.0,33,-99.99,,,-99.99,,2013-05-01 14:40:00,
2013-05-01 10:50:00,66.4,36.5,-100.00,North,-999,-999.0,-999.0,33,-99.99,,,-99.99,,2013-05-01 14:50:00,
2013-05-01 11:00:00,65.9,35.2,-100.00,North,-999,-999.0,-999.0,32,-99.99,,,-99.99,,2013-05-01 15:00:00,
2013-05-01 11:10:00,68.0,37.0,-100.00,North,-999,-999.0,-999.0,32,-99.99,,,-99.99,,2013-05-01 15:10:00,
2013-05-01 11:20:00,67.1,35.4,-100.00,North,-999,-999.0,-999.0,31,-99.99,,,-99.99,,2013-05-01 15:20:00,
2013-05-01 11:30:00,68.2,37.2,-100.00,North,-999,-999.0,-999.0,32,-99.99,,,-99.99,,2013-05-01 15:30:00,
2013-05-01 11:40:00,69.5,37.6,-100.00,North,-999,-999.0,-999.0,31,-99.99,,,-99.99,,2013-05-01 15:40:00,
2013-05-01 11:50:00,68.8,35.2,-100.00,North,-999,-999.0,-999.0,29,-99.99,,,-99.99,,2013-05-01 15:50:00,
2013-05-01 12:00:00,70.0,36.3,-100.00,North,-999,-999.0,-999.0,29,-99.99,,,-99.99,,2013-05-01 16:00:00,
2013-05-01 12:10:00,71.6,37.6,-100.00,North,-999,-999.0,-999.0,29,-99.99,,,-99.99,,2013-05-01 16:10:00,
2013-05-01 12:20:00,70.0,34.5,-100.00,North,-999,-999.0,-999.0,27,-99.99,,,-99.99,,2013-05-01 16:20:00,
2013-05-01 12:30:00,70.7,36.0,-100.00,North,-999,-999.0,-999.0,28,-99.99,,,-99.99,,2013-05-01 16:30:00,
2013-05-01 12:40:00,72.9,38.8,-100.00,North,-999,-999.0,-999.0,29,-99.99,,,-99.99,,2013-05-01 16:40:00,
2013-05-01 12:50:00,71.8,35.1,-100.00,North,-999,-999.0,-999.0,26,-99.99,,,-99.99,,2013-05-01 16:50:00,
2013-05-01 13:00:00,70.7,34.2,-100.00,North,-999,-999.0,-999.0,26,-99.99,,,-99.99,,2013-05-01 17:00:00,
2013-05-01 13:10:00,74.0,37.9,-100.00,North,-999,-999.0,-999.0,27,-99.99,,,-99.99,,2013-05-01 17:10:00,
2013-05-01 13:20:00,73.4,36.5,-100.00,North,-999,-999.0,-999.0,26,-99.99,,,-99.99,,2013-05-01 17:20:00,
2013-05-01 13:30:00,73.6,36.5,-100.00,North,-999,-999.0,-999.0,26,-99.99,,,-99.99,,2013-05-01 17:30:00,
2013-05-01 13:40:00,73.1,36.1,-100.00,North,-999,-999.0,-999.0,26,-99.99,,,-99.99,,2013-05-01 17:40:00,
2013-05-01 13:50:00,73.8,35.8,-100.00,North,-999,-999.0,-999.0,25,-99.99,,,-99.99,,2013-05-01 17:50:00,
2013-05-01 14:00:00,76.3,38.8,-100.00,North,-999,-999.0,-999.0,26,-99.99,,,-99.99,,2013-05-01 18:00:00,
2013-05-01 14:10:00,73.6,36.5,-100.00,North,-999,-999.0,-999.0,26,-99.99,,,-99.99,,2013-05-01 18:10:00,
2013-05-01 14:20:00,75.1,36.9,-100.00,North,-999,-999.0,-999.0,25,-99.99,,,-99.99,,2013-05-01 18:20:00,
2013-05-01 14:30:00,75.6,37.2,-100.00,North,-999,-999.0,-999.0,25,-99.99,,,-99.99,,2013-05-01 18:30:00,
2013-05-01 14:40:00,75.8,37.4,-100.00,North,-999,-999.0,-999.0,25,-99.99,,,-99.99,,2013-05-01 18:40:00,
2013-05-01 14:50:00,75.4,38.1,-100.00,North,-999,-999.0,-999.0,26,-99.99,,,-99.99,,2013-05-01 18:50:00,
2013-05-01 15:00:00,75.8,37.4,-100.00,North,-999,-999.0,-999.0,25,-99.99,,,-99.99,,2013-05-01 19:00:00,
2013-05-01 15:10:00,74.3,35.2,-100.00,North,-999,-999.0,-999.0,24,-99.99,,,-99.99,,2013-05-01 19:10:00,
2013-05-01 15:20:00,72.5,33.6,-100.00,North,-999,-999.0,-999.0,24,-99.99,,,-99.99,,2013-05-01 19:20:00,
2013-05-01 15:30:00,73.8,34.7,-100.00,North,-999,-999.0,-999.0,24,-99.99,,,-99.99,,2013-05-01 19:30:00,
2013-05-01 15:40:00,73.6,35.6,-100.00,North,-999,-999.0,-999.0,25,-99.99,,,-99.99,,2013-05-01 19:40:00,
2013-05-01 15:50:00,74.3,36.1,-100.00,North,-999,-999.0,-999.0,25,-99.99,,,-99.99,,2013-05-01 19:50:00,
2013-05-01 16:00:00,74.3,37.2,-100.00,North,-999,-999.0,-999.0,26,-99.99,,,-99.99,,2013-05-01 20:00:00,
2013-05-01 16:10:00,74.0,37.9,-100.00,North,-999,-999.0,-999.0,27,-99.99,,,-99.99,,2013-05-01 20:10:00,
2013-05-01 16:20:00,73.1,35.2,-100.00,North,-999,-999.0,-999.0,25,-99.99,,,-99.99,,2013-05-01 20:20:00,
2013-05-01 16:30:00,72.0,35.2,-100.00,North,-999,-999.0,-999.0,26,-99.99,,,-99.99,,2013-05-01 20:30:00,
2013-05-01 16:40:00,71.5,34.9,-100.00,North,-999,-999.0,-999.0,26,-99.99,,,-99.99,,2013-05-01 20:40:00,
2013-05-01 16:50:00,71.1,34.5,-100.00,North,-999,-999.0,-999.0,26,-99.99,,,-99.99,,2013-05-01 20:50:00,
2013-05-01 17:00:00,70.4,33.8,-100.00,North,-999,-999.0,-999.0,26,-99.99,,,-99.99,,2013-05-01 21:00:00,
2013-05-01 17:10:00,70.6,35.1,-100.00,North,-999,-999.0,-999.0,27,-99.99,,,-99.99,,2013-05-01 21:10:00,
2013-05-01 17:20:00,69.8,34.3,-100.00,North,-999,-999.0,-999.0,27,-99.99,,,-99.99,,2013-05-01 21:20:00,
2013-05-01 17:30:00,69.3,34.7,-100.00,North,-999,-999.0,-999.0,28,-99.99,,,-99.99,,2013-05-01 21:30:00,
2013-05-01 17:40:00,68.9,34.5,-100.00,North,-999,-999.0,-999.0,28,-99.99,,,-99.99,,2013-05-01 21:40:00,
2013-05-01 17:50:00,69.1,35.4,-100.00,North,-999,-999.0,-999.0,29,-99.99,,,-99.99,,2013-05-01 21:50:00,
2013-05-01 18:00:00,70.0,36.3,-100.00,North,-999,-999.0,-999.0,29,-99.99,,,-99.99,,2013-05-01 22:00:00,
2013-05-01 18:10:00,70.7,41.0,-100.00,North,-999,-999.0,-999.0,34,-99.99,,,-99.99,,2013-05-01 22:10:00,
2013-05-01 18:20:00,67.1,42.6,-100.00,North,-999,-999.0,-999.0,41,-99.99,,,-99.99,,2013-05-01 22:20:00,
2013-05-01 18:30:00,74.3,50.4,-100.00,North,-999,-999.0,-999.0,43,-99.99,,,-99.99,,2013-05-01 22:30:00,
2013-05-01 18:40:00,65.0,42.6,-100.00,North,-999,-999.0,-999.0,44,-99.99,,,-99.99,,2013-05-01 22:40:00,
2013-05-01 18:50:00,63.4,42.3,-100.00,North,-999,-999.0,-999.0,46,-99.99,,,-99.99,,2013-05-01 22:50:00,
2013-05-01 19:00:00,62.3,41.7,-100.00,North,-999,-999.0,-999.0,47,-99.99,,,-99.99,,2013-05-01 23:00:00,
2013-05-01 19:10:00,61.4,42.1,-100.00,North,-999,-999.0,-999.0,49,-99.99,,,-99.99,,2013-05-01 23:10:00,
2013-05-01 19:20:00,60.7,41.9,-100.00,North,-999,-999.0,-999.0,50,-99.99,,,-99.99,,2013-05-01 23:20:00,
2013-05-01 19:30:00,59.9,41.7,-100.00,North,-999,-999.0,-999.0,51,-99.99,,,-99.99,,2013-05-01 23:30:00,
2013-05-01 19:40:00,59.0,41.4,-100.00,North,-999,-999.0,-999.0,52,-99.99,,,-99.99,,2013-05-01 23:40:00,
2013-05-01 19:50:00,58.3,41.7,-100.00,North,-999,-999.0,-999.0,54,-99.99,,,-99.99,,2013-05-01 23:50:00,
2013-05-01 20:00:00,57.4,41.4,-100.00,North,-999,-999.0,-999.0,55,-99.99,,,-99.99,,2013-05-02 00:00:00,
2013-05-01 20:10:00,56.9,41.4,-100.00,North,-999,-999.0,-999.0,56,-99.99,,,-99.99,,2013-05-02 00:10:00,
2013-05-01 20:20:00,56.0,40.5,-100.00,North,-999,-999.0,-999.0,56,-99.99,,,-99.99,,2013-05-02 00:20:00,
2013-05-01 20:30:00,54.7,40.3,-100.00,North,-999,-999.0,-999.0,58,-99.99,,,-99.99,,2013-05-02 00:30:00,
2013-05-01 20:40:00,54.0,39.6,-100.00,North,-999,-999.0,-999.0,58,-99.99,,,-99.99,,2013-05-02 00:40:00,
2013-05-01 20:50:00,53.3,39.7,-100.00,North,-999,-999.0,-999.0,60,-99.99,,,-99.99,,2013-05-02 00:50:00,
2013-05-01 21:00:00,52.6,39.6,-100.00,North,-999,-999.0,-999.0,61,-99.99,,,-99.99,,2013-05-02 01:00:00,
2013-05-01 21:10:00,52.0,39.0,-100.00,North,-999,-999.0,-999.0,61,-99.99,,,-99.99,,2013-05-02 01:10:00,
2013-05-01 21:20:00,51.3,39.2,-100.00,North,-999,-999.0,-999.0,63,-99.99,,,-99.99,,2013-05-02 01:20:00,
2013-05-01 21:30:00,51.1,39.4,-100.00,North,-999,-999.0,-999.0,64,-99.99,,,-99.99,,2013-05-02 01:30:00,
2013-05-01 21:40:00,50.4,39.0,-100.00,North,-999,-999.0,-999.0,65,-99.99,,,-99.99,,2013-05-02 01:40:00,
2013-05-01 21:50:00,49.7,38.8,-100.00,North,-999,-999.0,-999.0,66,-99.99,,,-99.99,,2013-05-02 01:50:00,
2013-05-01 22:00:00,49.1,38.3,-100.00,North,-999,-999.0,-999.0,66,-99.99,,,-99.99,,2013-05-02 02:00:00,
2013-05-01 22:10:00,48.8,37.9,-100.00,North,-999,-999.0,-999.0,66,-99.99,,,-99.99,,2013-05-02 02:10:00,
2013-05-01 22:20:00,47.9,37.4,-100.00,North,-999,-999.0,-999.0,67,-99.99,,,-99.99,,2013-05-02 02:20:00,
2013-05-01 22:30:00,47.0,37.4,-100.00,North,-999,-999.0,-999.0,69,-99.99,,,-99.99,,2013-05-02 02:30:00,
2013-05-01 22:40:00,47.2,37.9,-100.00,North,-999,-999.0,-999.0,70,-99.99,,,-99.99,,2013-05-02 02:40:00,
2013-05-01 22:50:00,46.6,37.0,-100.00,North,-999,-999.0,-999.0,69,-99.99,,,-99.99,,2013-05-02 02:50:00,
2013-05-01 23:00:00,45.2,36.3,-100.00,North,-999,-999.0,-999.0,71,-99.99,,,-99.99,,2013-05-02 03:00:00,
2013-05-01 23:10:00,45.2,36.7,-100.00,North,-999,-999.0,-999.0,72,-99.99,,,-99.99,,2013-05-02 03:10:00,
2013-05-01 23:20:00,44.5,36.0,-100.00,North,-999,-999.0,-999.0,72,-99.99,,,-99.99,,2013-05-02 03:20:00,
2013-05-01 23:30:00,43.9,36.1,-100.00,North,-999,-999.0,-999.0,74,-99.99,,,-99.99,,2013-05-02 03:30:00,
2013-05-01 23:40:00,43.7,36.0,-100.00,North,-999,-999.0,-999.0,74,-99.99,,,-99.99,,2013-05-02 03:40:00,
2013-05-01 23:50:00,43.7,36.3,-100.00,North,-999,-999.0,-999.0,75,-99.99,,,-99.99,,2013-05-02 03:50:00,